"2007/01/01",  4.3,  7.6, -1.4
"2007/01/02",  6.0,  8.3,  2.5
"2007/01/03",  7.2,  8.3,  5.4
"2007/01/04",  5.5,  8.0,  3.7
"2007/01/05",  5.4,  7.6,  3.1
"2007/01/06",  5.3,  8.0,  3.6
"2007/01/07",  6.6,  9.8,  4.1
"2007/01/08",  6.2,  9.5,  3.8
"2007/01/09",  4.5,  8.2,  1.8
"2007/01/10",  4.7, 10.7, -1.2
"2007/01/11",  4.7,  9.4,  0.5
"2007/01/12",  4.0,  6.2,  2.2
"2007/01/13",  4.1,  9.8, -0.5
"2007/01/14",  2.6,  6.1, -1.5
"2007/01/15",  3.3,  6.9, -1.3
"2007/01/16",  5.3,  9.2,  1.6
"2007/01/17",  5.6,  7.2,  4.1
"2007/01/18",  5.8,  9.4,  3.1
"2007/01/19",  5.0,  8.9,  2.4
"2007/01/20",  3.7,  5.6,  1.6
"2007/01/21",  5.1,  7.3,  3.1
"2007/01/22",  5.5,  9.4,  2.1
"2007/01/23",  5.2,  8.4,  1.0
"2007/01/24",  4.7,  8.0,  1.9
"2007/01/25",  4.2,  9.4, -1.6
"2007/01/26",  4.5,  8.8, -0.2
"2007/01/27",  7.7, 13.6,  3.2
"2007/01/28",  5.7,  8.6,  2.1
"2007/01/29",  5.8,  6.9,  4.1
"2007/01/30",  6.1, 10.8,  3.1
"2007/01/31",  6.8, 12.7,  2.6
"2007/02/01",  6.4, 10.9,  1.9
"2007/02/02",  4.2,  7.4,  0.7
"2007/02/03",  4.9,  9.4, -0.1
"2007/02/04",  5.7,  9.6,  0.2
"2007/02/05",  5.1, 11.0,  0.4
"2007/02/06",  7.5, 12.6,  1.6
"2007/02/07",  6.8, 11.0,  1.4
"2007/02/08",  5.0,  9.9, -0.2
"2007/02/09",  7.5, 10.3,  5.5
"2007/02/10",  7.7,  9.8,  4.9
"2007/02/11",  6.7,  9.8,  2.8
"2007/02/12",  6.1, 10.2,  3.0
"2007/02/13",  6.2,  8.9,  3.9
"2007/02/14",  9.4, 17.5,  6.0
"2007/02/15",  7.8, 11.6,  2.9
"2007/02/16",  6.0, 10.4,  2.6
"2007/02/17",  5.2,  7.8,  0.5
"2007/02/18",  5.6,  6.8,  3.2
"2007/02/19",  6.3,  9.6,  1.3
"2007/02/20",  5.4,  6.9,  4.0
"2007/02/21",  6.5,  9.6,  4.1
"2007/02/22",  7.4, 12.8,  1.5
"2007/02/23",  8.6,  9.9,  7.5
"2007/02/24",  4.6,  8.0,  0.9
"2007/02/25",  2.4,  4.9, -0.3
"2007/02/26",  4.3,  7.9,  1.5
"2007/02/27",  6.5, 13.3,  0.6
"2007/02/28",  7.6, 10.8,  4.6
"2007/03/01",  5.8, 10.5,  0.1
"2007/03/02",  6.2, 10.3,  2.1
"2007/03/03",  8.4, 12.5,  4.8
"2007/03/04", 10.5, 17.0,  8.2
"2007/03/05", 14.8, 19.0,  9.1
"2007/03/06", 10.3, 16.4,  5.3
"2007/03/07",  6.0,  8.5,  4.0
"2007/03/08",  5.7, 10.5,  0.4
"2007/03/09",  6.0,  8.0,  2.9
"2007/03/10",  8.1, 11.0,  4.5
"2007/03/11",  8.0, 11.1,  3.5
"2007/03/12",  5.5,  9.5,  0.5
"2007/03/13",  6.5, 11.0,  2.0
"2007/03/14",  6.0, 10.6,  2.2
"2007/03/15",  6.4,  9.7,  3.0
"2007/03/16",  6.0,  7.9,  4.1
"2007/03/17",  4.8,  6.9,  3.1
"2007/03/18",  4.4,  8.9,  0.5
"2007/03/19",  4.9, 10.2, -1.6
"2007/03/20",  5.7,  9.1,  2.1
"2007/03/21",  6.4,  9.3,  3.6
"2007/03/22",  8.6, 14.5,  5.1
"2007/03/23",  8.9, 12.4,  6.2
"2007/03/24", 11.6, 16.0,  7.2
"2007/03/25", 13.9, 16.5, 10.8
"2007/03/26", 11.8, 17.0,  6.7
"2007/03/27", 10.8, 13.3,  7.7
"2007/03/28", 11.5, 16.6,  8.6
"2007/03/29", 15.1, 21.1,  9.0
"2007/03/30", 11.4, 18.3,  8.1
"2007/03/31", 10.9, 16.2,  6.7
"2007/04/01", 15.0, 17.7, 11.5
"2007/04/02", 11.6, 12.6, 10.7
"2007/04/03",  7.2, 11.4,  5.1
"2007/04/04",  6.5,  8.9,  4.5
"2007/04/05",  7.7, 12.2,  3.0
"2007/04/06",  9.1, 11.2,  5.8
"2007/04/07", 11.4, 14.1,  8.6
"2007/04/08", 11.3, 13.6,  8.5
"2007/04/09", 10.3, 12.6,  8.6
"2007/04/10", 11.8, 15.7,  6.0
"2007/04/11", 10.1, 11.6,  7.8
"2007/04/12", 10.7, 14.5,  7.3
"2007/04/13", 14.8, 18.4, 10.8
"2007/04/14", 16.0, 22.6, 12.8
"2007/04/15", 12.4, 13.6, 10.4
"2007/04/16", 10.0, 11.4,  8.1
"2007/04/17",  8.6,  9.5,  7.7
"2007/04/18",  8.1,  9.9,  6.5
"2007/04/19",  8.9, 10.7,  6.8
"2007/04/20", 11.8, 16.0,  7.3
"2007/04/21", 17.1, 19.7, 14.3
"2007/04/22", 17.5, 20.0, 12.8
"2007/04/23", 11.2, 12.9,  9.6
"2007/04/24", 11.3, 13.3,  9.5
"2007/04/25", 13.3, 14.6, 11.3
"2007/04/26", 14.7, 20.2, 10.6
"2007/04/27", 12.0, 16.3,  8.6
"2007/04/28", 11.9, 17.3,  9.4
"2007/04/29", 13.6, 20.0,  7.1
"2007/04/30", 16.3, 24.5,  9.6
"2007/05/01", 14.9, 18.2, 13.1
"2007/05/02", 17.7, 22.8, 13.7
"2007/05/03", 16.5, 20.8, 13.1
"2007/05/04", 19.7, 25.5, 14.9
"2007/05/05", 20.5, 24.4, 17.5
"2007/05/06", 16.3, 18.1, 13.9
"2007/05/07", 17.1, 20.2, 14.4
"2007/05/08", 17.9, 21.6, 14.4
"2007/05/09", 19.9, 24.9, 16.0
"2007/05/10", 18.3, 24.2, 13.9
"2007/05/11", 16.3, 20.6, 12.0
"2007/05/12", 16.2, 21.0,  9.3
"2007/05/13", 17.0, 18.9, 16.0
"2007/05/14", 16.8, 19.0, 14.3
"2007/05/15", 16.1, 20.3, 12.3
"2007/05/16", 16.6, 19.6, 12.2
"2007/05/17", 16.8, 19.1, 15.0
"2007/05/18", 19.0, 23.0, 12.9
"2007/05/19", 17.1, 20.8, 13.6
"2007/05/20", 16.5, 22.0, 12.4
"2007/05/21", 15.2, 17.9, 11.0
"2007/05/22", 18.6, 23.0, 14.8
"2007/05/23", 20.1, 26.9, 15.8
"2007/05/24", 17.2, 19.0, 15.1
"2007/05/25", 17.7, 20.6, 15.3
"2007/05/26", 20.4, 25.3, 16.5
"2007/05/27", 19.9, 28.1, 14.4
"2007/05/28", 12.9, 14.6, 11.8
"2007/05/29", 15.6, 19.2, 11.3
"2007/05/30", 17.3, 20.1, 15.6
"2007/05/31", 17.0, 19.3, 15.5
"2007/06/01", 15.5, 16.7, 13.7
"2007/06/02", 17.6, 21.4, 14.0
"2007/06/03", 18.0, 21.5, 14.7
"2007/06/04", 17.8, 20.2, 15.6
"2007/06/05", 19.3, 22.9, 15.7
"2007/06/06", 20.7, 24.6, 17.3
"2007/06/07", 20.4, 24.6, 18.1
"2007/06/08", 20.6, 23.2, 17.9
"2007/06/09", 20.4, 22.6, 18.5
"2007/06/10", 18.4, 19.9, 16.8
"2007/06/11", 18.8, 21.6, 17.0
"2007/06/12", 21.0, 26.0, 16.9
"2007/06/13", 22.2, 27.4, 18.6
"2007/06/14", 20.8, 23.7, 17.9
"2007/06/15", 20.7, 25.5, 18.4
"2007/06/16", 21.0, 27.5, 17.3
"2007/06/17", 19.0, 21.9, 16.6
"2007/06/18", 21.7, 25.3, 18.4
"2007/06/19", 22.6, 28.6, 19.3
"2007/06/20", 23.7, 28.6, 20.1
"2007/06/21", 23.5, 27.3, 20.5
"2007/06/22", 22.0, 23.9, 20.6
"2007/06/23", 23.2, 27.3, 20.6
"2007/06/24", 20.9, 22.6, 18.6
"2007/06/25", 20.5, 22.1, 18.8
"2007/06/26", 22.1, 24.6, 19.8
"2007/06/27", 22.8, 25.5, 20.8
"2007/06/28", 23.5, 27.4, 20.3
"2007/06/29", 24.9, 28.2, 23.2
"2007/06/30", 21.7, 24.0, 19.4
"2007/07/01", 21.5, 24.7, 18.9
"2007/07/02", 22.5, 23.6, 20.8
"2007/07/03", 21.7, 23.7, 20.5
"2007/07/04", 20.5, 21.1, 19.8
"2007/07/05", 20.5, 22.7, 19.5
"2007/07/06", 21.9, 24.8, 19.4
"2007/07/07", 21.4, 22.5, 20.2
"2007/07/08", 20.9, 22.2, 20.0
"2007/07/09", 21.1, 22.9, 19.9
"2007/07/10", 21.7, 23.3, 20.3
"2007/07/11", 23.7, 25.2, 21.0
"2007/07/12", 22.1, 24.3, 21.1
"2007/07/13", 21.5, 22.4, 20.4
"2007/07/14", 20.5, 22.6, 19.6
"2007/07/15", 22.8, 25.5, 20.6
"2007/07/16", 21.2, 22.9, 19.3
"2007/07/17", 19.1, 20.1, 17.5
"2007/07/18", 19.5, 20.7, 18.2
"2007/07/19", 20.2, 21.9, 18.9
"2007/07/20", 22.0, 27.8, 19.0
"2007/07/21", 23.2, 25.2, 21.7
"2007/07/22", 22.8, 24.4, 21.5
"2007/07/23", 22.5, 23.5, 21.7
"2007/07/24", 23.0, 26.5, 20.8
"2007/07/25", 23.1, 27.3, 20.4
"2007/07/26", 24.6, 26.8, 22.4
"2007/07/27", 25.0, 26.8, 22.8
"2007/07/28", 26.2, 31.5, 22.1
"2007/07/29", 24.4, 27.0, 21.9
"2007/07/30", 21.0, 22.2, 19.8
"2007/07/31", 21.5, 24.8, 19.5
"2007/08/01", 24.9, 30.1, 20.0
"2007/08/02", 27.4, 30.5, 25.0
"2007/08/03", 27.1, 30.4, 24.7
"2007/08/04", 27.6, 30.6, 25.5
"2007/08/05", 27.2, 31.8, 23.2
"2007/08/06", 27.0, 31.9, 22.7
"2007/08/07", 26.8, 30.6, 22.7
"2007/08/08", 27.4, 31.0, 24.8
"2007/08/09", 27.6, 31.1, 24.3
"2007/08/10", 27.6, 31.1, 24.0
"2007/08/11", 27.1, 32.6, 24.3
"2007/08/12", 27.0, 30.6, 24.1
"2007/08/13", 27.1, 30.2, 23.9
"2007/08/14", 28.4, 32.6, 24.8
"2007/08/15", 29.1, 33.6, 25.2
"2007/08/16", 30.1, 34.1, 26.7
"2007/08/17", 27.6, 30.3, 23.4
"2007/08/18", 23.3, 24.4, 21.9
"2007/08/19", 26.5, 30.8, 22.0
"2007/08/20", 27.4, 31.7, 24.7
"2007/08/21", 28.1, 32.3, 25.2
"2007/08/22"," * "," * "," * "
"2007/08/23"," * "," * "," * "
"2007/08/24", 24.7, 26.2, 23.4
"2007/08/25", 25.5, 28.8, 23.2
"2007/08/26", 26.8, 31.3, 24.0
"2007/08/27", 27.2, 31.7, 24.1
"2007/08/28", 25.5, 29.4, 22.5
"2007/08/29", 22.9, 24.4, 21.7
"2007/08/30", 23.0, 23.8, 22.4
"2007/08/31", 23.4, 26.1, 21.1
"2007/09/01", 20.9, 21.8, 20.0
"2007/09/02", 21.3, 22.9, 20.3
"2007/09/03", 22.8, 27.0, 20.8
"2007/09/04", 24.2, 26.4, 21.9
"2007/09/05", 25.4, 27.3, 23.9
"2007/09/06", 26.2, 27.7, 24.7
"2007/09/07", 26.0, 28.8, 24.0
"2007/09/08", 27.0, 30.6, 24.0
"2007/09/09", 25.9, 30.5, 23.5
"2007/09/10", 25.5, 29.1, 23.8
"2007/09/11", 23.0, 24.8, 22.0
"2007/09/12", 20.9, 22.8, 18.6
"2007/09/13"," * "," * "," * "
"2007/09/14"," * "," * "," * "
"2007/09/15", 25.6, 29.9, 21.9
"2007/09/16", 26.6, 29.7, 24.2
"2007/09/17", 27.1, 30.0, 23.1
"2007/09/18", 22.1, 23.5, 20.7
"2007/09/19", 22.9, 24.9, 20.8
"2007/09/20", 25.1, 29.2, 22.1
"2007/09/21", 25.2, 29.7, 21.5
"2007/09/22", 24.9, 29.1, 22.4
"2007/09/23", 21.5, 24.1, 19.9
"2007/09/24", 21.2, 22.3, 20.3
"2007/09/25", 23.2, 28.0, 19.1
"2007/09/26", 21.4, 23.4, 19.6
"2007/09/27", 22.0, 24.1, 19.8
"2007/09/28", 24.1, 28.6, 20.3
"2007/09/29", 17.6, 20.5, 15.4
"2007/09/30", 17.4, 18.4, 15.9
"2007/10/01", 17.6, 19.5, 16.1
"2007/10/02", 18.8, 21.1, 16.6
"2007/10/03", 19.6, 20.9, 18.1
"2007/10/04", 20.2, 22.9, 18.3
"2007/10/05", 20.0, 22.4, 18.7
"2007/10/06", 18.7, 20.8, 14.2
"2007/10/07", 17.8, 21.2, 12.7
"2007/10/08", 20.1, 24.0, 16.6
"2007/10/09", 17.4, 20.5, 15.5
"2007/10/10", 17.9, 19.7, 15.4
"2007/10/11", 18.7, 21.9, 15.3
"2007/10/12", 19.2, 24.2, 17.9
"2007/10/13", 17.6, 19.0, 16.2
"2007/10/14", 17.0, 18.0, 15.1
"2007/10/15", 17.1, 18.8, 15.3
"2007/10/16", 15.9, 17.1, 14.5
"2007/10/17", 16.2, 18.3, 14.1
"2007/10/18", 15.8, 17.4, 13.5
"2007/10/19"," * "," * "," * "
"2007/10/20", 15.9, 19.0, 13.4
"2007/10/21", 14.7, 18.0,  9.6
"2007/10/22", 14.7, 19.9,  8.6
"2007/10/23", 16.0, 21.5, 11.9
"2007/10/24", 15.1, 17.2, 12.3
"2007/10/25", 15.3, 19.2, 10.6
"2007/10/26", 17.2, 18.8, 16.4
"2007/10/27", 16.4, 17.9, 13.4
"2007/10/28", 16.5, 20.1, 11.8
"2007/10/29", 18.8, 22.7, 15.2
"2007/10/30", 16.8, 18.2, 15.1
"2007/10/31", 15.6, 17.7, 13.5
"2007/11/01", 15.8, 18.1, 13.7
"2007/11/02", 14.9, 16.4, 13.3
"2007/11/03", 14.2, 16.3, 11.7
"2007/11/04", 14.1, 17.1,  9.7
"2007/11/05", 14.6, 16.9, 12.4
"2007/11/06", 14.2, 16.2, 12.4
"2007/11/07", 13.7, 15.8, 10.6
"2007/11/08", 13.7, 17.3,  9.7
"2007/11/09", 14.7, 16.6, 12.3
"2007/11/10", 13.1, 14.6, 12.1
"2007/11/11", 13.4, 15.5, 12.0
"2007/11/12", 13.1, 18.0,  8.0
"2007/11/13", 13.6, 17.9, 10.6
"2007/11/14", 14.0, 19.2, 11.0
"2007/11/15", 13.5, 18.9,  9.4
"2007/11/16", 10.6, 12.1,  8.2
"2007/11/17",  9.3, 12.1,  6.3
"2007/11/18",  9.9, 17.0,  3.9
"2007/11/19",  7.6,  9.7,  3.9
"2007/11/20",  8.1, 11.6,  4.1
"2007/11/21",  7.9, 11.6,  3.6
"2007/11/22",  6.5, 10.3,  3.5
"2007/11/23",  6.8,  9.5,  4.2
"2007/11/24",  6.7, 12.6,  0.9
"2007/11/25",  8.4, 14.2,  1.6
"2007/11/26",  8.3, 13.2,  3.3
"2007/11/27", 10.0, 12.4,  7.5
"2007/11/28",  9.3, 10.6,  7.9
"2007/11/29",  8.7, 10.1,  7.6
"2007/11/30",  8.8, 10.5,  7.2
"2007/12/01",  9.9, 13.1,  6.7
"2007/12/02",  8.2, 12.6,  3.9
"2007/12/03",  7.7, 12.1,  4.8
"2007/12/04",  7.1,  9.8,  4.2
"2007/12/05",  5.1, 10.8,  0.1
"2007/12/06",  6.1, 11.8,  2.3
"2007/12/07",  7.4, 13.0,  1.2
"2007/12/08",  8.3, 10.2,  6.4
"2007/12/09",  7.7, 12.2,  3.0
"2007/12/10",  6.5,  9.6,  2.9
"2007/12/11",  7.8, 10.1,  5.5
"2007/12/12",  7.3, 11.0,  2.6
"2007/12/13",  7.9,  9.1,  6.7
"2007/12/14",  6.9, 11.6,  2.8
"2007/12/15",  5.1,  8.8,  1.0
"2007/12/16",  4.5,  8.4,  0.5
"2007/12/17",  3.6,  7.3, -1.6
"2007/12/18",  5.2,  9.8, -0.7
"2007/12/19",  5.0,  6.8,  2.0
"2007/12/20",  5.9, 10.4,  1.4
"2007/12/21",  5.3, 10.4, -0.2
"2007/12/22",  5.3,  6.6,  4.4
"2007/12/23",  6.4, 10.7,  4.5
"2007/12/24",  7.0, 10.8,  1.9
"2007/12/25",  4.7,  7.6,  0.0
"2007/12/26",  4.9,  6.8,  3.0
"2007/12/27",  4.5,  7.4, -0.6
"2007/12/28",  5.3,  9.6,  0.3
"2007/12/29",  8.7, 12.2,  7.1
"2007/12/30"," * "," * "," * "
"2007/12/31"," * "," * "," * "
